sat.trackr.live / text

‹ back to catalog

STARLINK-31478

NORAD 59188 · 2024-045L

PAYLOAD ACTIVE UNKNOWN

§ Identity

Operator
Country
US
Launch date
2024-03-10
Launch site
AFETR
Launch vehicle
Mass (kg)
RCS (m²)

Purposes: comms

External: N2YO · Heavens-Above · Gunter

§ Orbital elements

Epoch: 2026-09-20T21:05:57.973344Z

Period
94.27 min
Inclination
43.0023°
Eccentricity
0.0001400
Mean motion
15.27583814 rev/d
Perigee alt
482.1 km
Apogee alt
484.0 km
Semi-major
6,861.2 km
B*
1.2503e-6
RAAN
70.1585°
Arg perigee
274.7799°
Mean anomaly
85.2892°
Rev number
14,301

§ Raw data

STARLINK-314781 59188U 24045L   26263.87914321 -.00000228  00000+0  12503-5 0  99982 59188  43.0023  70.1585 0001400 274.7799  85.2892 15.27583814143018

JSON: /api/v1/satellites/59188 · /tle

For live sub-satellite position, see the globe view (requires WebGL).

§ Visibility from observer

Set your observer location to see the next 7 days of passes ≥ 10°. The values pass through the URL so the page stays shareable.

No JS? Fill the form by hand. The geolocation button needs JavaScript.